| time (UTC) | temp C | wind direction | speed KPH | gust KPH | rain 1hr cm | rain 24hr cm | rain mn cm | humidity % | barometer mb |
| 20260507033324 | 5 | 136 | 1.6 | 3.2 | 0.00 | 3.07 | 3.07 | 97 | 1005.3 |
| 20260507032847 | 6 | 199 | 1.6 | 3.2 | 0.00 | 3.07 | 3.07 | 97 | 1005.3 |
| 20260507032319 | 6 | 199 | 526.3 | 1.6 | 0.00 | 3.07 | 3.07 | 96 | 1005.3 |
| 20260507031831 | -17 | 0.0 | 0.0 | 0.00 | 3.07 | 3.07 | 1005.3 | ||
| 20260507031319 | -17 | 0.0 | 0.0 | 0.00 | 3.07 | 3.07 | 1005.8 | ||
| 20260507030813 | -17 | 0.0 | 0.0 | 0.00 | 3.07 | 3.07 | 1005.8 | ||
| 20260507030331 | -17 | 0.0 | 0.0 | 0.00 | 3.07 | 3.07 | 1005.8 | ||
| 20260507025815 | -17 | 0.0 | 0.0 | 0.00 | 3.07 | 3.07 | 1005.8 | ||
| 20260507025320 | -17 | 0.0 | 0.0 | 0.00 | 3.07 | 3.07 | 1005.8 | ||
| 20260507024827 | 6 | 301 | 0.0 | 0.0 | 0.03 | 3.07 | 3.07 | 97 | 1005.8 |
| 20260507023827 | 6 | 301 | 0.0 | 0.0 | 0.03 | 3.07 | 3.07 | 97 | 1005.8 |
| 20260507023340 | 6 | 301 | 0.0 | 0.0 | 0.03 | 3.07 | 3.07 | 97 | 1005.8 |
| 20260507022811 | 6 | 301 | 0.0 | 0.0 | 0.05 | 3.07 | 3.07 | 97 | 1005.8 |
| 20260507022323 | 6 | 301 | 0.0 | 1.6 | 0.05 | 3.07 | 3.07 | 97 | 1005.8 |
| 20260507021816 | 6 | 301 | 0.0 | 3.2 | 0.05 | 3.07 | 3.07 | 97 | 1005.8 |
| 20260507021328 | 6 | 315 | 0.0 | 3.2 | 0.10 | 3.07 | 3.07 | 97 | 1005.8 |
| 20260507020901 | 6 | 315 | 1.6 | 3.2 | 0.10 | 3.07 | 3.07 | 97 | 1005.8 |
| 20260507020318 | 6 | 307 | 0.0 | 1.6 | 0.10 | 3.07 | 3.07 | 97 | 1005.8 |
| 20260507015832 | 6 | 307 | 1.6 | 3.2 | 0.10 | 3.07 | 3.07 | 97 | 1005.8 |
| 20260507015326 | 6 | 307 | 1.6 | 3.2 | 0.10 | 3.07 | 3.07 | 96 | 1005.8 |
| 20260507014823 | 6 | 306 | 1.6 | 4.8 | 0.08 | 3.05 | 3.05 | 96 | 1005.8 |
| 20260507014344 | 6 | 318 | 3.2 | 4.8 | 0.08 | 3.05 | 3.05 | 97 | 1005.8 |
| 20260507013822 | 6 | 323 | 1.6 | 4.8 | 0.10 | 3.05 | 3.05 | 97 | 1005.8 |
| 20260507013331 | 6 | 323 | 1.6 | 4.8 | 0.10 | 3.05 | 3.05 | 97 | 1005.8 |
| 20260507012839 | 6 | 308 | 0.0 | 1.6 | 0.08 | 3.02 | 3.02 | 97 | 1005.7 |
| 20260507012322 | 6 | 308 | 0.0 | 1.6 | 0.08 | 3.02 | 3.02 | 97 | 1005.7 |
| 20260507011834 | 6 | 308 | 526.3 | 0.0 | 0.08 | 3.02 | 3.02 | 96 | 1005.7 |
| 20260507011330 | -17 | 0.0 | 0.0 | 0.03 | 2.97 | 2.97 | 1005.7 | ||
| 20260507010856 | -17 | 0.0 | 0.0 | 0.03 | 2.97 | 2.97 | 1005.7 | ||
| 20260507010331 | -17 | 0.0 | 0.0 | 0.03 | 2.97 | 2.97 | 1005.7 | ||
| 20260507005821 | 6 | 308 | 3.2 | 6.4 | 0.03 | 2.97 | 2.97 | 96 | 1005.5 |
| 20260507004844 | 6 | 308 | 3.2 | 6.4 | 0.03 | 2.97 | 2.97 | 96 | 1005.5 |
| 20260507004326 | 6 | 316 | 1.6 | 9.7 | 0.03 | 2.97 | 2.97 | 96 | 1005.3 |
| 20260507003810 | 6 | 317 | 3.2 | 9.7 | 0.00 | 2.95 | 2.95 | 96 | 1005.3 |
| 20260507003327 | 6 | 313 | 3.2 | 9.7 | 0.03 | 2.95 | 2.95 | 96 | 1005.3 |
| 20260507002836 | 6 | 355 | 6.4 | 9.7 | 0.03 | 2.95 | 2.95 | 96 | 1004.9 |
| 20260507002327 | 6 | 331 | 526.3 | 4.8 | 0.03 | 2.95 | 2.95 | 96 | 1004.9 |
| 20260507001841 | -17 | 0.0 | 0.0 | 0.03 | 2.95 | 2.95 | 1004.9 | ||
| 20260507001329 | -17 | 0.0 | 0.0 | 0.03 | 2.95 | 2.95 | 1004.6 | ||
| 20260507000823 | -17 | 0.0 | 0.0 | 0.03 | 2.95 | 2.95 | 1004.6 | ||
| 20260507000317 | -17 | 0.0 | 0.0 | 0.03 | 2.95 | 2.95 | 1004.6 | ||
| 20260506235821 | -17 | 0.0 | 0.0 | 0.03 | 2.95 | 2.95 | 1004.4 | ||
| 20260506235315 | -17 | 0.0 | 0.0 | 0.03 | 2.95 | 2.95 | 1004.4 | ||
| 20260506234827 | 6 | 14 | 3.2 | 8.0 | 0.05 | 2.95 | 2.95 | 96 | 1004.4 |
| 20260506233810 | 6 | 311 | 1.6 | 9.7 | 0.05 | 2.95 | 2.95 | 96 | 1004.3 |
| 20260506233323 | 6 | 319 | 3.2 | 11.3 | 0.03 | 2.92 | 2.92 | 96 | 1004.3 |
| 20260506232823 | 6 | 325 | 6.4 | 12.9 | 0.03 | 2.92 | 2.92 | 96 | 1003.8 |
| 20260506232329 | 6 | 345 | 6.4 | 12.9 | 0.03 | 2.92 | 2.92 | 96 | 1003.8 |
| 20260506231826 | 6 | 319 | 4.8 | 14.5 | 0.03 | 2.92 | 2.92 | 96 | 1003.8 |
| 20260506231313 | 6 | 355 | 6.4 | 17.7 | 0.03 | 2.92 | 2.92 | 96 | 1003.7 |
| 20260506230840 | 6 | 327 | 6.4 | 17.7 | 0.03 | 2.92 | 2.92 | 96 | 1003.7 |
| 20260506230330 | 6 | 330 | 9.7 | 17.7 | 0.08 | 2.92 | 2.92 | 96 | 1003.7 |
| 20260506225817 | 6 | 324 | 8.0 | 17.7 | 0.08 | 2.92 | 2.92 | 96 | 1003.4 |
| 20260506225316 | 6 | 335 | 8.0 | 20.9 | 0.08 | 2.92 | 2.92 | 96 | 1003.4 |
| 20260506224828 | 6 | 360 | 6.4 | 20.9 | 0.05 | 2.90 | 2.90 | 96 | 1003.4 |
| 20260506224315 | 6 | 307 | 6.4 | 14.5 | 0.05 | 2.90 | 2.90 | 96 | 1003.4 |
| 20260506223819 | 6 | 309 | 8.0 | 14.5 | 0.05 | 2.90 | 2.90 | 96 | 1003.4 |
| 20260506223344 | 6 | 5 | 6.4 | 14.5 | 0.05 | 2.90 | 2.90 | 96 | 1003.4 |
| 20260506222817 | 6 | 309 | 4.8 | 12.9 | 0.05 | 2.90 | 2.90 | 96 | 1003.1 |
| 20260506222347 | 6 | 355 | 4.8 | 12.9 | 0.05 | 2.90 | 2.90 | 96 | 1003.1 |
| 20260506221823 | 6 | 315 | 4.8 | 11.3 | 0.05 | 2.90 | 2.90 | 96 | 1003.1 |
| 20260506221338 | 6 | 338 | 4.8 | 16.1 | 0.05 | 2.90 | 2.90 | 96 | 1002.8 |
| 20260506220819 | 6 | 338 | 526.3 | 4.8 | 0.00 | 2.84 | 2.84 | 1002.8 | |
| 20260506220336 | -17 | 0.0 | 0.0 | 0.00 | 2.84 | 2.84 | 1002.8 | ||
| 20260506215822 | -17 | 0.0 | 0.0 | 0.00 | 2.84 | 2.84 | 1002.6 | ||
| 20260506215314 | -17 | 0.0 | 0.0 | 0.00 | 2.84 | 2.84 | 1002.6 | ||
| 20260506214315 | 6 | 321 | 4.8 | 11.3 | 0.00 | 2.84 | 2.84 | 96 | 1002.5 |
| 20260506213814 | 6 | 360 | 4.8 | 16.1 | 0.00 | 2.84 | 2.84 | 96 | 1002.5 |
| 20260506213344 | 6 | 299 | 6.4 | 16.1 | 0.03 | 2.84 | 2.84 | 96 | 1002.5 |
| 20260506212837 | 6 | 316 | 8.0 | 16.1 | 0.03 | 2.84 | 2.84 | 96 | 1002.5 |
| 20260506212340 | 6 | 340 | 6.4 | 14.5 | 0.03 | 2.84 | 2.84 | 96 | 1002.5 |
| 20260506211829 | 6 | 279 | 6.4 | 16.1 | 0.05 | 2.84 | 2.84 | 96 | 1002.5 |
| 20260506211349 | 6 | 348 | 4.8 | 16.1 | 0.05 | 2.84 | 2.84 | 96 | 1002.2 |
| 20260506210825 | 6 | 286 | 4.8 | 14.5 | 0.05 | 2.84 | 2.84 | 96 | 1002.2 |
| 20260506210327 | 6 | 325 | 6.4 | 12.9 | 0.05 | 2.84 | 2.84 | 96 | 1002.2 |
| 20260506205820 | 6 | 314 | 6.4 | 12.9 | 0.05 | 2.84 | 2.84 | 96 | 1002.2 |
| 20260506205318 | 6 | 333 | 4.8 | 12.9 | 0.05 | 2.84 | 2.84 | 96 | 1002.2 |
| 20260506204829 | 6 | 11 | 6.4 | 12.9 | 0.05 | 2.84 | 2.84 | 95 | 1002.2 |
| 20260506204316 | 6 | 331 | 6.4 | 12.9 | 0.05 | 2.84 | 2.84 | 95 | 1002.3 |
| 20260506203825 | 6 | 348 | 6.4 | 12.9 | 0.15 | 2.84 | 2.84 | 95 | 1002.3 |
| 20260506203325 | 6 | 305 | 3.2 | 11.3 | 0.13 | 2.82 | 2.82 | 96 | 1002.3 |
| 20260506202819 | 6 | 26 | 1.6 | 11.3 | 0.13 | 2.82 | 2.82 | 96 | 1002.4 |
| 20260506202352 | 6 | 355 | 6.4 | 11.3 | 0.13 | 2.82 | 2.82 | 96 | 1002.4 |
| 20260506201837 | 6 | 289 | 3.2 | 9.7 | 0.10 | 2.79 | 2.79 | 95 | 1002.4 |
| 20260506201324 | 6 | 9 | 6.4 | 11.3 | 0.10 | 2.79 | 2.79 | 96 | 1002.4 |
| 20260506200821 | 6 | 15 | 3.2 | 14.5 | 0.15 | 2.79 | 2.79 | 96 | 1002.4 |
| 20260506200331 | 6 | 9 | 6.4 | 17.7 | 0.25 | 2.79 | 2.79 | 96 | 1002.4 |
| 20260506195840 | 6 | 336 | 4.8 | 17.7 | 0.30 | 2.79 | 2.79 | 96 | 1002.6 |
| 20260506195326 | 6 | 325 | 8.0 | 14.5 | 0.38 | 2.79 | 2.79 | 96 | 1002.6 |
| 20260506194836 | 6 | 296 | 3.2 | 14.5 | 0.43 | 2.79 | 2.79 | 96 | 1002.6 |
| 20260506194321 | 6 | 345 | 8.0 | 17.7 | 0.46 | 2.79 | 2.79 | 96 | 1002.6 |
| 20260506193837 | -17 | 0.0 | 0.0 | 0.38 | 2.69 | 2.69 | 1002.6 | ||
| 20260506193331 | -17 | 0.0 | 0.0 | 0.41 | 2.69 | 2.69 | 1002.6 | ||
| 20260506192815 | -17 | 0.0 | 0.0 | 0.46 | 2.69 | 2.69 | 1002.5 | ||
| 20260506192323 | 6 | 315 | 3.2 | 17.7 | 0.51 | 2.69 | 2.69 | 96 | 1002.5 |
| 20260506191830 | 6 | 315 | 3.2 | 17.7 | 0.56 | 2.69 | 2.69 | 96 | 1002.5 |
| 20260506191319 | 6 | 275 | 3.2 | 17.7 | 0.61 | 2.69 | 2.69 | 96 | 1002.4 |
| 20260506190814 | 6 | 302 | 4.8 | 11.3 | 0.58 | 2.62 | 2.62 | 96 | 1002.4 |
| 20260506190323 | 6 | 308 | 4.8 | 17.7 | 0.51 | 2.51 | 2.51 | 96 | 1002.4 |
| 20260506185831 | 6 | 49 | 4.8 | 19.3 | 0.48 | 2.46 | 2.46 | 95 | 1002.4 |
| 20260506185338 | 6 | 355 | 11.3 | 19.3 | 0.46 | 2.41 | 2.41 | 95 | 1002.4 |
| 20260506184822 | 6 | 338 | 9.7 | 17.7 | 0.46 | 2.36 | 2.36 | 96 | 1002.4 |
| 20260506184345 | 6 | 336 | 6.4 | 14.5 | 0.51 | 2.34 | 2.34 | 96 | 1002.5 |
| 20260506183827 | 6 | 15 | 4.8 | 16.1 | 0.48 | 2.31 | 2.31 | 96 | 1002.5 |
| 20260506183337 | 6 | 290 | 9.7 | 22.5 | 0.51 | 2.29 | 2.29 | 95 | 1002.5 |
| 20260506182853 | 6 | 323 | 12.9 | 22.5 | 0.48 | 2.24 | 2.24 | 95 | 1002.5 |
| 20260506182332 | 7 | 306 | 8.0 | 19.3 | 0.46 | 2.16 | 2.16 | 95 | 1002.5 |
| 20260506181822 | 7 | 360 | 8.0 | 19.3 | 0.46 | 2.11 | 2.11 | 95 | 1002.5 |
| 20260506181350 | 7 | 360 | 11.3 | 19.3 | 0.46 | 2.08 | 2.08 | 95 | 1002.1 |
| 20260506180845 | 7 | 342 | 6.4 | 19.3 | 0.46 | 2.03 | 2.03 | 95 | 1002.1 |
| 20260506180314 | 7 | 347 | 11.3 | 22.5 | 0.46 | 2.01 | 2.01 | 95 | 1002.1 |
| 20260506175821 | 7 | 348 | 11.3 | 22.5 | 0.46 | 1.98 | 1.98 | 95 | 1002.6 |
| 20260506175345 | 7 | 148 | 4.8 | 20.9 | 0.46 | 1.96 | 1.96 | 96 | 1002.6 |
| 20260506174816 | 7 | 325 | 9.7 | 20.9 | 0.41 | 1.88 | 1.88 | 96 | 1002.6 |
| 20260506174338 | 7 | 26 | 6.4 | 11.3 | 0.41 | 1.83 | 1.83 | 96 | 1002.1 |
| 20260506173844 | 7 | 343 | 3.2 | 8.0 | 0.43 | 1.83 | 1.83 | 96 | 1002.1 |
| 20260506173312 | 7 | 344 | 3.2 | 9.7 | 0.41 | 1.78 | 1.78 | 96 | 1002.1 |
| 20260506172821 | 7 | 292 | 4.8 | 9.7 | 0.38 | 1.73 | 1.73 | 96 | 1002.5 |
| 20260506172354 | 7 | 300 | 3.2 | 11.3 | 0.36 | 1.70 | 1.70 | 96 | 1002.5 |
| 20260506171844 | 7 | 360 | 6.4 | 11.3 | 0.48 | 1.65 | 1.65 | 96 | 1002.5 |
| 20260506171314 | 7 | 311 | 4.8 | 8.0 | 0.43 | 1.60 | 1.60 | 96 | 1002.6 |
| 20260506170824 | 7 | 45 | 3.2 | 9.7 | 0.41 | 1.57 | 1.57 | 96 | 1002.6 |
| 20260506170332 | 7 | 360 | 6.4 | 14.5 | 0.38 | 1.55 | 1.55 | 96 | 1002.6 |
| 20260506165820 | 7 | 355 | 6.4 | 17.7 | 0.33 | 1.50 | 1.50 | 96 | 1003.1 |
| 20260506165313 | 7 | 5 | 8.0 | 17.7 | 0.30 | 1.47 | 1.47 | 95 | 1003.1 |
| 20260506164819 | 8 | 12 | 6.4 | 16.1 | 0.30 | 1.47 | 1.47 | 95 | 1003.1 |
| 20260506164323 | 8 | 346 | 6.4 | 16.1 | 0.28 | 1.42 | 1.42 | 95 | 1003.0 |
| 20260506163815 | 8 | 321 | 6.4 | 9.7 | 0.30 | 1.40 | 1.40 | 96 | 1003.0 |
| 20260506163343 | 8 | 355 | 4.8 | 9.7 | 0.30 | 1.37 | 1.37 | 96 | 1003.0 |
| 20260506162826 | 8 | 337 | 3.2 | 6.4 | 0.30 | 1.35 | 1.35 | 96 | 1003.0 |
| 20260506162318 | 8 | 355 | 526.3 | 3.2 | 0.30 | 1.32 | 1.32 | 96 | 1003.0 |
| 20260506161827 | -17 | 0.0 | 0.0 | 0.20 | 1.17 | 1.17 | 1003.0 | ||
| 20260506161344 | -17 | 0.0 | 0.0 | 0.23 | 1.17 | 1.17 | 1003.1 | ||
| 20260506160814 | -17 | 0.0 | 0.0 | 0.25 | 1.17 | 1.17 | 1003.1 | ||
| 20260506160340 | 9 | 314 | 3.2 | 8.0 | 0.28 | 1.17 | 1.17 | 96 | 1003.1 |
| 20260506155824 | 9 | 314 | 3.2 | 8.0 | 0.33 | 1.17 | 1.17 | 96 | 1003.3 |
| 20260506155316 | 9 | 336 | 3.2 | 8.0 | 0.38 | 1.17 | 1.17 | 96 | 1003.3 |
| 20260506154843 | 9 | 336 | 3.2 | 6.4 | 0.43 | 1.17 | 1.17 | 96 | 1003.3 |
| 20260506154327 | 9 | 355 | 0.0 | 1.6 | 0.46 | 1.14 | 1.14 | 96 | 1003.2 |
| 20260506153815 | 9 | 355 | 0.0 | 3.2 | 0.46 | 1.09 | 1.09 | 96 | 1003.2 |
| 20260506153359 | 9 | 355 | 0.0 | 3.2 | 0.48 | 1.07 | 1.07 | 95 | 1003.2 |
| 20260506152812 | 9 | 355 | 0.0 | 3.2 | 0.48 | 1.04 | 1.04 | 96 | 1003.5 |
| 20260506152324 | 9 | 355 | 1.6 | 3.2 | 0.46 | 0.99 | 0.99 | 96 | 1003.5 |
| 20260506151839 | 9 | 355 | 0.0 | 3.2 | 0.48 | 0.97 | 0.97 | 96 | 1003.5 |
| 20260506151327 | 9 | 355 | 1.6 | 3.2 | 0.51 | 0.94 | 0.94 | 96 | 1003.7 |
| 20260506150835 | 10 | 355 | 0.0 | 3.2 | 0.48 | 0.91 | 0.91 | 96 | 1003.7 |
| 20260506150339 | 10 | 355 | 0.0 | 4.8 | 0.46 | 0.86 | 0.86 | 96 | 1003.7 |
| 20260506145816 | 10 | 355 | 1.6 | 8.0 | 0.46 | 0.84 | 0.84 | 96 | 1004.2 |
| 20260506145324 | 10 | 325 | 3.2 | 8.0 | 0.41 | 0.79 | 0.79 | 96 | 1004.2 |
| 20260506144833 | 10 | 306 | 3.2 | 8.0 | 0.38 | 0.74 | 0.74 | 95 | 1004.2 |
| 20260506144339 | 10 | 319 | 3.2 | 6.4 | 0.33 | 0.69 | 0.69 | 95 | 1004.2 |
| 20260506143812 | 10 | 306 | 3.2 | 8.0 | 0.30 | 0.64 | 0.64 | 95 | 1004.2 |
| 20260506143320 | 10 | 350 | 4.8 | 9.7 | 0.28 | 0.58 | 0.58 | 95 | 1004.2 |
| 20260506142828 | 10 | 342 | 3.2 | 9.7 | 0.28 | 0.56 | 0.56 | 95 | 1004.2 |
| 20260506142329 | 11 | 301 | 3.2 | 6.4 | 0.25 | 0.51 | 0.51 | 96 | 1004.2 |
| 20260506141824 | 11 | 342 | 1.6 | 6.4 | 0.20 | 0.43 | 0.43 | 96 | 1004.2 |
| 20260506141329 | 11 | 342 | 1.6 | 6.4 | 0.20 | 0.43 | 0.43 | 96 | 1004.0 |
| 20260506140823 | 11 | 342 | 1.6 | 4.8 | 0.20 | 0.41 | 0.41 | 96 | 1004.0 |
| 20260506140333 | 11 | 325 | 1.6 | 4.8 | 0.20 | 0.38 | 0.38 | 96 | 1004.0 |
| 20260506135844 | 11 | 313 | 1.6 | 6.4 | 0.20 | 0.38 | 0.38 | 96 | 1003.9 |
| 20260506135318 | 11 | 334 | 3.2 | 6.4 | 0.23 | 0.38 | 0.38 | 96 | 1003.9 |
| 20260506134822 | 11 | 304 | 1.6 | 4.8 | 0.20 | 0.36 | 0.36 | 96 | 1003.9 |
| 20260506134325 | 11 | 311 | 1.6 | 4.8 | 0.20 | 0.33 | 0.33 | 96 | 1003.7 |
| 20260506133854 | 11 | 336 | 1.6 | 6.4 | 0.20 | 0.33 | 0.33 | 95 | 1003.7 |
| 20260506133325 | 11 | 311 | 3.2 | 6.4 | 0.20 | 0.30 | 0.30 | 96 | 1003.7 |
| 20260506132832 | 11 | 306 | 0.0 | 4.8 | 0.18 | 0.28 | 0.28 | 96 | 1003.8 |
| 20260506132341 | 11 | 322 | 1.6 | 6.4 | 0.18 | 0.25 | 0.25 | 96 | 1003.8 |
| 20260506131814 | 11 | 325 | 1.6 | 6.4 | 0.15 | 0.23 | 0.23 | 96 | 1003.8 |
| 20260506131325 | 11 | 350 | 1.6 | 4.8 | 0.13 | 0.20 | 0.20 | 96 | 1004.0 |
| 20260506130850 | 11 | 323 | 3.2 | 4.8 | 0.13 | 0.20 | 0.20 | 96 | 1004.0 |
| 20260506130350 | 11 | 283 | 0.0 | 6.4 | 0.10 | 0.18 | 0.18 | 96 | 1004.0 |
| 20260506125835 | 11 | 5 | 3.2 | 8.0 | 0.10 | 0.18 | 0.18 | 96 | 1004.2 |
| 20260506125330 | 11 | 308 | 3.2 | 8.0 | 0.10 | 0.15 | 0.15 | 95 | 1004.2 |
| 20260506124839 | 11 | 307 | 4.8 | 8.0 | 0.10 | 0.15 | 0.15 | 95 | 1004.2 |
| 20260506124330 | 11 | 290 | 3.2 | 11.3 | 0.08 | 0.13 | 0.13 | 95 | 1004.7 |
| 20260506123819 | 11 | 349 | 4.8 | 12.9 | 0.05 | 0.10 | 0.10 | 95 | 1004.7 |
| 20260506123345 | 12 | 308 | 4.8 | 12.9 | 0.05 | 0.10 | 0.10 | 95 | 1004.7 |
| 20260506122835 | 12 | 24 | 6.4 | 8.0 | 0.05 | 0.10 | 0.10 | 95 | 1004.4 |
| 20260506122311 | 12 | 342 | 4.8 | 8.0 | 0.03 | 0.08 | 0.08 | 95 | 1004.4 |
| 20260506121825 | 12 | 319 | 3.2 | 6.4 | 0.03 | 0.08 | 0.08 | 95 | 1004.4 |
| 20260506121333 | 12 | 340 | 3.2 | 8.0 | 0.03 | 0.08 | 0.08 | 96 | 1003.9 |
| 20260506120829 | 12 | 15 | 3.2 | 8.0 | 0.03 | 0.08 | 0.08 | 96 | 1003.9 |
| 20260506120334 | 12 | 355 | 1.6 | 6.4 | 0.03 | 0.08 | 0.08 | 96 | 1003.9 |
| 20260506115838 | 12 | 336 | 3.2 | 8.0 | 0.03 | 0.08 | 0.08 | 96 | 1004.1 |
| 20260506115330 | 12 | 290 | 4.8 | 9.7 | 0.00 | 0.05 | 0.05 | 96 | 1004.1 |
| 20260506114821 | 12 | 304 | 4.8 | 9.7 | 0.00 | 0.05 | 0.05 | 96 | 1004.1 |
| 20260506114318 | 12 | 300 | 0.0 | 4.8 | 0.00 | 0.05 | 0.05 | 96 | 1004.1 |
| 20260506113843 | 12 | 300 | 0.0 | 4.8 | 0.00 | 0.05 | 0.05 | 96 | 1004.1 |
| 20260506113347 | 12 | 324 | 0.0 | 4.8 | 0.00 | 0.05 | 0.05 | 96 | 1004.1 |
| 20260506112821 | 12 | 324 | 0.0 | 4.8 | 0.00 | 0.05 | 0.05 | 96 | 1003.8 |
| 20260506112315 | 12 | 324 | 0.0 | 4.8 | 0.00 | 0.05 | 0.05 | 96 | 1003.8 |
| 20260506111823 | 12 | 103 | 1.6 | 4.8 | 0.00 | 0.05 | 0.05 | 96 | 1003.8 |
| 20260506111314 | 12 | 103 | 0.0 | 4.8 | 0.00 | 0.05 | 0.05 | 96 | 1004.2 |
| 20260506110819 | 12 | 90 | 0.0 | 0.0 | 0.00 | 0.05 | 0.05 | 96 | 1004.2 |
| 20260506110331 | 12 | 90 | 0.0 | 0.0 | 0.00 | 0.05 | 0.05 | 96 | 1004.2 |
| 20260506105842 | 12 | 90 | 0.0 | 0.0 | 0.00 | 0.05 | 0.05 | 96 | 1003.7 |
| 20260506105342 | 12 | 90 | 0.0 | 0.0 | 0.00 | 0.05 | 0.05 | 96 | 1003.7 |
| 20260506104810 | 12 | 90 | 0.0 | 0.0 | 0.00 | 0.05 | 0.05 | 96 | 1003.7 |
| 20260506104346 | 12 | 90 | 0.0 | 0.0 | 0.00 | 0.05 | 0.05 | 95 | 1003.6 |
| 20260506103814 | 12 | 90 | 0.0 | 0.0 | 0.00 | 0.05 | 0.05 | 95 | 1003.6 |
| 20260506103344 | 12 | 90 | 0.0 | 0.0 | 0.00 | 0.05 | 0.05 | 95 | 1003.6 |
| 20260506102829 | 12 | 90 | 0.0 | 0.0 | 0.00 | 0.05 | 0.05 | 96 | 1003.6 |
| 20260506102326 | 12 | 90 | 0.0 | 0.0 | 0.00 | 0.05 | 0.05 | 95 | 1003.6 |
| 20260506101813 | 12 | 90 | 0.0 | 0.0 | 0.00 | 0.05 | 0.05 | 95 | 1003.6 |
| 20260506101323 | 12 | 90 | 0.0 | 0.0 | 0.00 | 0.05 | 0.05 | 95 | 1003.5 |
| 20260506100832 | 12 | 90 | 0.0 | 0.0 | 0.00 | 0.05 | 0.05 | 95 | 1003.5 |
| 20260506100314 | 11 | 90 | 0.0 | 0.0 | 0.00 | 0.05 | 0.05 | 95 | 1003.5 |
| 20260506095818 | 11 | 90 | 0.0 | 0.0 | 0.00 | 0.05 | 0.05 | 95 | 1003.6 |
| 20260506095321 | 11 | 90 | 526.3 | 0.0 | 0.00 | 0.05 | 0.05 | 94 | 1003.6 |
| 20260506094847 | -17 | 0.0 | 0.0 | 0.00 | 0.05 | 0.05 | 1003.6 | ||
| 20260506094332 | -17 | 0.0 | 0.0 | 0.00 | 0.05 | 0.05 | 1003.4 | ||
| 20260506093837 | -17 | 0.0 | 0.0 | 0.00 | 0.05 | 0.05 | 1003.4 | ||
| 20260506093315 | 12 | 90 | 0.0 | 0.0 | 0.00 | 0.05 | 0.05 | 94 | 1003.4 |
| 20260506092823 | 12 | 90 | 0.0 | 0.0 | 0.00 | 0.05 | 0.05 | 94 | 1003.7 |
| 20260506092328 | 12 | 90 | 0.0 | 0.0 | 0.00 | 0.05 | 0.05 | 93 | 1003.7 |
| 20260506091820 | 12 | 90 | 0.0 | 0.0 | 0.00 | 0.05 | 0.05 | 93 | 1003.7 |
| 20260506091326 | 12 | 90 | 0.0 | 0.0 | 0.00 | 0.05 | 0.05 | 93 | 1003.6 |
| 20260506090835 | 12 | 90 | 0.0 | 0.0 | 0.00 | 0.05 | 0.05 | 94 | 1003.6 |
| 20260506090340 | 12 | 90 | 0.0 | 0.0 | 0.00 | 0.05 | 0.05 | 94 | 1003.6 |
| 20260506085814 | 12 | 90 | 0.0 | 0.0 | 0.00 | 0.05 | 0.05 | 94 | 1003.8 |
| 20260506085324 | 12 | 90 | 0.0 | 0.0 | 0.00 | 0.05 | 0.05 | 94 | 1003.8 |
| 20260506084818 | 12 | 90 | 0.0 | 0.0 | 0.00 | 0.05 | 0.05 | 94 | 1003.8 |
| 20260506084319 | 12 | 90 | 0.0 | 0.0 | 0.00 | 0.05 | 0.05 | 94 | 1004.2 |
| 20260506083843 | 12 | 90 | 0.0 | 0.0 | 0.00 | 0.05 | 0.05 | 94 | 1004.2 |
| 20260506083319 | 12 | 90 | 0.0 | 0.0 | 0.00 | 0.05 | 0.05 | 93 | 1004.2 |
| 20260506082812 | 12 | 90 | 0.0 | 0.0 | 0.00 | 0.05 | 0.05 | 93 | 1004.1 |
| 20260506082314 | 13 | 90 | 0.0 | 0.0 | 0.00 | 0.05 | 0.05 | 93 | 1004.1 |
| 20260506081827 | 13 | 90 | 0.0 | 0.0 | 0.00 | 0.05 | 0.05 | 94 | 1004.1 |
| 20260506081407 | 13 | 90 | 0.0 | 0.0 | 0.00 | 0.05 | 0.05 | 94 | 1004.2 |
| 20260506080827 | 13 | 90 | 0.0 | 0.0 | 0.00 | 0.05 | 0.05 | 95 | 1004.2 |
| 20260506080332 | 13 | 90 | 0.0 | 0.0 | 0.00 | 0.05 | 0.05 | 95 | 1004.2 |
| 20260506073315 | 13 | 90 | 0.0 | 0.0 | 0.00 | 0.05 | 0.05 | 94 | 1004.3 |
| 20260506072826 | 13 | 90 | 0.0 | 0.0 | 0.00 | 0.05 | 0.05 | 94 | 1004.4 |
| 20260506072350 | 13 | 90 | 0.0 | 0.0 | 0.00 | 0.05 | 0.05 | 95 | 1004.4 |
| 20260506071817 | 13 | 90 | 526.3 | 0.0 | 0.00 | 0.05 | 0.05 | 94 | 1004.4 |
| 20260506071319 | -17 | 0.0 | 0.0 | 0.00 | 0.05 | 0.05 | 1004.3 | ||
| 20260506070846 | -17 | 0.0 | 0.0 | 0.00 | 0.05 | 0.05 | 1004.3 | ||
| 20260506070331 | -17 | 0.0 | 0.0 | 0.00 | 0.05 | 0.05 | 1004.3 | ||
| 20260506062318 | 13 | 106 | 0.0 | 0.0 | 0.00 | 0.05 | 0.05 | 93 | 1004.5 |
| 20260506061826 | 13 | 106 | 0.0 | 0.0 | 0.00 | 0.05 | 0.05 | 93 | 1004.5 |
| 20260506061353 | 13 | 106 | 0.0 | 3.2 | 0.00 | 0.05 | 0.05 | 93 | 1004.5 |
| 20260506060840 | 13 | 106 | 0.0 | 4.8 | 0.00 | 0.05 | 0.05 | 93 | 1004.5 |
| 20260506060330 | 13 | 106 | 1.6 | 4.8 | 0.00 | 0.05 | 0.05 | 92 | 1004.5 |
| 20260506051318 | 15 | 44 | 1.6 | 3.2 | 0.05 | 0.05 | 0.05 | 91 | 1005.3 |
| 20260506050840 | 15 | 44 | 1.6 | 3.2 | 0.05 | 0.05 | 0.05 | 89 | 1005.3 |
| 20260506050326 | 15 | 102 | 3.2 | 3.2 | 0.05 | 0.05 | 0.05 | 89 | 1005.3 |
| 20260506044830 | 15 | 102 | 1.6 | 3.2 | 0.05 | 0.05 | 0.05 | 86 | 1005.2 |
| 20260506044317 | 15 | 102 | 1.6 | 3.2 | 0.03 | 0.03 | 0.03 | 85 | 1004.8 |
| 20260506043841 | 16 | 102 | 0.0 | 3.2 | 0.00 | 0.00 | 0.00 | 84 | 1004.8 |
| 20260506043315 | 16 | 102 | 1.6 | 3.2 | 0.00 | 0.00 | 0.00 | 83 | 1004.8 |
| 20260506042853 | 16 | 126 | 0.0 | 4.8 | 0.00 | 0.00 | 0.00 | 82 | 1004.8 |
| 20260506042332 | 16 | 126 | 1.6 | 4.8 | 0.00 | 0.00 | 0.00 | 81 | 1004.8 |
| 20260506041816 | 16 | 78 | 0.0 | 3.2 | 0.00 | 0.00 | 0.00 | 80 | 1004.8 |
| 20260506041340 | 16 | 78 | 0.0 | 3.2 | 0.00 | 0.00 | 0.00 | 81 | 1004.8 |
| 20260506040842 | 16 | 151 | 1.6 | 3.2 | 0.00 | 0.00 | 0.00 | 80 | 1004.8 |
| 20260506040326 | 16 | 89 | 0.0 | 1.6 | 0.00 | 0.00 | 0.00 | 80 | 1004.8 |
| 20260506035815 | 16 | 89 | 1.6 | 3.2 | 0.00 | 0.00 | 0.00 | 80 | 1004.6 |
| 20260506035322 | 16 | 89 | 1.6 | 3.2 | 0.00 | 0.00 | 0.00 | 80 | 1004.6 |
| 20260506034820 | 16 | 35 | 1.6 | 3.2 | 0.00 | 0.00 | 0.00 | 80 | 1004.6 |
| 20260506034344 | 16 | 35 | 1.6 | 3.2 | 0.00 | 0.00 | 0.00 | 80 | 1004.6 |
| 20260506033821 | 16 | 107 | 1.6 | 3.2 | 0.00 | 0.00 | 0.00 | 80 | 1004.6 |